When you browse on this site, cookies collect data to enhance your experience and personalize the content and advertising you see.
Visit our Privacy Policy to learn more. By continuing to use the site, you agree to this use of cookies and data.
  • en Suisse
  • Liste des pays
  • À 7 jours
  • Température de l'eau
  • Carte météo
  • Widgets météo
  • user-avatar
    Se connecter

    Météo par heure à Bojsi

    Ce jour, 7 Juin, Dimanche

    Heure Température Précipitation Vent Pression Humidité
    00:00 +10°C° 0.3 mm 3 m/s 679 mmHg 78%
    01:00 +10°C° 0.3 mm 2 m/s 679 mmHg 79%
    02:00 +8°C° 1.5 mm 4 m/s 679 mmHg 83%
    03:00 +5°C° 1.5 mm 6 m/s 679 mmHg 87%
    04:00 +4°C° 1.5 mm 8 m/s 679 mmHg 90%
    05:00 +4°C° 1.6 mm 7 m/s 680 mmHg 88%
    06:00 +4°C° 1.6 mm 6 m/s 680 mmHg 85%
    07:00 +5°C° 1.6 mm 5 m/s 681 mmHg 82%
    08:00 +6°C° 0.3 mm 4 m/s 681 mmHg 76%
    09:00 +7°C° 0.3 mm 4 m/s 681 mmHg 69%
    10:00 +9°C° 0.3 mm 3 m/s 682 mmHg 63%
    11:00 +10°C° 0.2 mm 4 m/s 682 mmHg 58%
    12:00 +12°C° 0.2 mm 4 m/s 682 mmHg 53%
    13:00 +13°C° 0.2 mm 5 m/s 682 mmHg 48%
    14:00 +13°C° 0.3 mm 5 m/s 682 mmHg 49%
    15:00 +13°C° 0.3 mm 5 m/s 682 mmHg 51%
    16:00 +13°C° 0.3 mm 5 m/s 682 mmHg 53%
    17:00 +12°C° 0.5 mm 4 m/s 682 mmHg 59%
    18:00 +11°C° 0.5 mm 3 m/s 683 mmHg 66%
    19:00 +10°C° 0.5 mm 2 m/s 683 mmHg 72%
    20:00 +9°C° 0.1 mm 2 m/s 683 mmHg 73%
    21:00 +9°C° 0.1 mm 2 m/s 684 mmHg 73%
    22:00 +8°C° 0.1 mm 2 m/s 685 mmHg 74%
    23:00 +8°C° 0.1 mm 2 m/s 685 mmHg 76%

    Demain, 8 Juin, Lundi

    Heure Température Précipitation Vent Pression Humidité
    00:00 +8°C° 0.1 mm 3 m/s 685 mmHg 77%
    01:00 +8°C° 0.1 mm 3 m/s 686 mmHg 79%
    02:00 +7°C° 0 mm 3 m/s 686 mmHg 79%
    03:00 +6°C° 0 mm 4 m/s 687 mmHg 79%
    04:00 +5°C° 0 mm 4 m/s 687 mmHg 79%
    05:00 +6°C° 0 mm 4 m/s 688 mmHg 75%
    06:00 +7°C° 0 mm 5 m/s 688 mmHg 70%
    07:00 +7°C° 0 mm 6 m/s 689 mmHg 66%
    08:00 +8°C° 0 mm 6 m/s 689 mmHg 62%
    09:00 +9°C° 0 mm 6 m/s 689 mmHg 58%
    10:00 +10°C° 0 mm 6 m/s 689 mmHg 54%
    11:00 +12°C° 0 mm 5 m/s 689 mmHg 51%
    12:00 +13°C° 0 mm 5 m/s 689 mmHg 47%
    13:00 +14°C° 0 mm 4 m/s 689 mmHg 44%
    14:00 +14°C° 0 mm 4 m/s 689 mmHg 42%
    15:00 +16°C° 0 mm 3 m/s 689 mmHg 39%
    16:00 +17°C° 0 mm 3 m/s 689 mmHg 37%
    17:00 +15°C° 0 mm 2 m/s 689 mmHg 42%
    18:00 +14°C° 0 mm 2 m/s 689 mmHg 47%
    19:00 +13°C° 0 mm 1 m/s 689 mmHg 52%
    20:00 +12°C° 0 mm 2 m/s 689 mmHg 52%
    21:00 +12°C° 0 mm 2 m/s 689 mmHg 53%
    22:00 +10°C° 0 mm 2 m/s 690 mmHg 54%
    23:00 +10°C° 0 mm 2 m/s 690 mmHg 54%

    Après-demain, 9 Juin, Mardi

    Heure Température Précipitation Vent Pression Humidité
    00:00 +9°C° 0 mm 2 m/s 689 mmHg 54%
    01:00 +9°C° 0 mm 2 m/s 689 mmHg 55%
    02:00 +9°C° 0 mm 2 m/s 689 mmHg 53%
    03:00 +10°C° 0 mm 1 m/s 689 mmHg 52%
    04:00 +10°C° 0 mm 1 m/s 689 mmHg 51%
    05:00 +12°C° 0 mm 1 m/s 689 mmHg 49%
    06:00 +13°C° 0 mm 1 m/s 690 mmHg 47%
    07:00 +14°C° 0 mm 1 m/s 690 mmHg 46%
    08:00 +15°C° 0 mm 1 m/s 690 mmHg 47%
    09:00 +15°C° 0 mm 1 m/s 690 mmHg 49%
    10:00 +15°C° 0 mm 1 m/s 690 mmHg 50%
    11:00 +16°C° 0 mm 2 m/s 690 mmHg 48%
    12:00 +18°C° 0 mm 2 m/s 690 mmHg 46%
    13:00 +19°C° 0 mm 2 m/s 690 mmHg 43%
    14:00 +19°C° 0 mm 2 m/s 690 mmHg 43%
    15:00 +20°C° 0 mm 2 m/s 690 mmHg 43%
    16:00 +21°C° 0 mm 2 m/s 690 mmHg 44%
    17:00 +19°C° 0 mm 2 m/s 690 mmHg 49%
    18:00 +18°C° 0 mm 2 m/s 690 mmHg 55%
    19:00 +17°C° 0 mm 2 m/s 690 mmHg 61%
    20:00 +16°C° 0 mm 2 m/s 690 mmHg 63%
    21:00 +16°C° 0 mm 2 m/s 690 mmHg 65%
    22:00 +15°C° 0 mm 2 m/s 691 mmHg 68%
    23:00 +15°C° 0 mm 2 m/s 690 mmHg 71%

    10 Juin, Mercredi

    Heure Température Précipitation Vent Pression Humidité
    00:00 +14°C° 0 mm 1 m/s 690 mmHg 73%
    01:00 +14°C° 0 mm 1 m/s 690 mmHg 76%
    02:00 +13°C° 0 mm 1 m/s 690 mmHg 78%
    03:00 +12°C° 0 mm 1 m/s 689 mmHg 81%
    04:00 +11°C° 0 mm 1 m/s 689 mmHg 84%
    05:00 +13°C° 0 mm 1 m/s 690 mmHg 77%
    06:00 +15°C° 0 mm 1 m/s 690 mmHg 70%
    07:00 +16°C° 0 mm 0 m/s 691 mmHg 62%
    08:00 +20°C° 0 mm 1 m/s 691 mmHg 57%
    09:00 +21°C° 0 mm 1 m/s 691 mmHg 52%
    10:00 +23°C° 0 mm 1 m/s 691 mmHg 46%
    11:00 +24°C° 0 mm 1 m/s 690 mmHg 42%
    12:00 +25°C° 0 mm 1 m/s 690 mmHg 38%
    13:00 +26°C° 0 mm 1 m/s 690 mmHg 35%
    14:00 +27°C° 0 mm 1 m/s 690 mmHg 34%
    15:00 +27°C° 0 mm 2 m/s 689 mmHg 34%
    16:00 +27°C° 0 mm 2 m/s 689 mmHg 33%
    17:00 +26°C° 0 mm 2 m/s 689 mmHg 39%
    18:00 +24°C° 0 mm 2 m/s 688 mmHg 44%
    19:00 +21°C° 0 mm 2 m/s 688 mmHg 49%
    20:00 +20°C° 0 mm 2 m/s 688 mmHg 49%
    21:00 +19°C° 0 mm 2 m/s 688 mmHg 50%
    22:00 +18°C° 0 mm 2 m/s 688 mmHg 50%
    23:00 +18°C° 0 mm 2 m/s 688 mmHg 50%

    11 Juin, Jeudi

    Heure Température Précipitation Vent Pression Humidité
    00:00 +18°C° 0 mm 2 m/s 688 mmHg 49%
    01:00 +18°C° 0 mm 2 m/s 688 mmHg 48%
    02:00 +17°C° 0 mm 2 m/s 688 mmHg 49%
    03:00 +17°C° 0 mm 2 m/s 688 mmHg 50%
    04:00 +16°C° 0 mm 2 m/s 688 mmHg 50%
    05:00 +19°C° 0 mm 1 m/s 688 mmHg 47%
    06:00 +21°C° 0 mm 1 m/s 688 mmHg 44%
    07:00 +23°C° 0 mm 1 m/s 689 mmHg 40%
    08:00 +25°C° 0 mm 1 m/s 689 mmHg 37%
    09:00 +26°C° 0 mm 2 m/s 689 mmHg 34%
    10:00 +28°C° 0 mm 2 m/s 689 mmHg 31%
    11:00 +29°C° 0 mm 3 m/s 689 mmHg 27%
    12:00 +31°C° 0 mm 3 m/s 689 mmHg 24%
    13:00 +33°C° 0 mm 3 m/s 689 mmHg 21%
    14:00 +34°C° 0 mm 3 m/s 688 mmHg 21%
    15:00 +34°C° 0 mm 3 m/s 688 mmHg 22%
    16:00 +34°C° 0 mm 2 m/s 688 mmHg 22%
    17:00 +30°C° 0 mm 2 m/s 687 mmHg 28%
    18:00 +28°C° 0 mm 1 m/s 687 mmHg 34%
    19:00 +26°C° 0 mm 1 m/s 686 mmHg 41%
    20:00 +25°C° 0 mm 2 m/s 686 mmHg 40%
    21:00 +25°C° 0 mm 2 m/s 686 mmHg 38%
    22:00 +24°C° 0 mm 2 m/s 686 mmHg 37%
    23:00 +23°C° 0 mm 2 m/s 685 mmHg 37%

    12 Juin, Vendredi

    Heure Température Précipitation Vent Pression Humidité
    00:00 +21°C° 0 mm 3 m/s 685 mmHg 38%
    01:00 +21°C° 0 mm 3 m/s 685 mmHg 38%
    02:00 +20°C° 0 mm 3 m/s 684 mmHg 37%
    03:00 +20°C° 0 mm 2 m/s 684 mmHg 37%
    04:00 +19°C° 0 mm 2 m/s 683 mmHg 36%
    05:00 +22°C° 0 mm 3 m/s 683 mmHg 34%
    06:00 +25°C° 0 mm 3 m/s 684 mmHg 32%
    07:00 +27°C° 0 mm 3 m/s 684 mmHg 30%
    08:00 +29°C° 0 mm 5 m/s 684 mmHg 26%
    09:00 +32°C° 0 mm 6 m/s 684 mmHg 22%
    10:00 +34°C° 0 mm 8 m/s 684 mmHg 18%
    11:00 +34°C° 0 mm 7 m/s 684 mmHg 17%
    12:00 +35°C° 0 mm 6 m/s 683 mmHg 16%
    13:00 +35°C° 0 mm 5 m/s 683 mmHg 16%
    14:00 +34°C° 0 mm 5 m/s 682 mmHg 18%
    15:00 +33°C° 0 mm 5 m/s 681 mmHg 21%
    16:00 +33°C° 0 mm 5 m/s 680 mmHg 23%
    17:00 +29°C° 0 mm 6 m/s 680 mmHg 29%
    18:00 +26°C° 0 mm 7 m/s 680 mmHg 35%
    19:00 +22°C° 0 mm 9 m/s 680 mmHg 41%
    20:00 +20°C° 0 mm 7 m/s 680 mmHg 46%
    21:00 +19°C° 0 mm 5 m/s 681 mmHg 50%
    22:00 +17°C° 0 mm 4 m/s 681 mmHg 54%
    23:00 +17°C° 0 mm 3 m/s 682 mmHg 55%
    Voir plus